sat.trackr.live / text

‹ back to catalog

RASSVET-3 2

NORAD 68361 · 2026-061B

PAYLOAD ACTIVE UNKNOWN

§ Identity

Operator
Country
CIS
Launch date
2026-03-23
Launch site
PLMSC
Launch vehicle
Mass (kg)
RCS (m²)

External: N2YO · Heavens-Above · Gunter

§ Orbital elements

Epoch: 2026-05-25T03:38:59.383680Z

Period
90.79 min
Inclination
82.2965°
Eccentricity
0.0006177
Mean motion
15.86134355 rev/d
Perigee alt
309.0 km
Apogee alt
317.3 km
Semi-major
6,691.3 km
B*
3.0375e-4
RAAN
37.9133°
Arg perigee
187.4427°
Mean anomaly
172.6752°
Rev number
992

§ Raw data

RASSVET-3 21 68361U 26061B   26145.15207620  .00075444  00000+0  30375-3 0  99942 68361  82.2965  37.9133 0006177 187.4427 172.6752 15.86134355  9929

JSON: /api/v1/satellites/68361 · /tle

For live sub-satellite position, see the globe view (requires WebGL).

§ Visibility from observer

Set your observer location to see the next 7 days of passes ≥ 10°. The values pass through the URL so the page stays shareable.

No JS? Fill the form by hand. The geolocation button needs JavaScript.